Location: Jackson
(42.2460°N, 84.4010°W)
Time: 18:19:16
(UTC-04:00)

Courier 1B Rocket - Pass Details

Date: 16 February 2026
Orbit: 920 x 1201 km, 28.2° (Epoch: 12 March)

Event Time Altitude Azimuth Distance (km) Brightness Sun altitude
Rises 20:08:35 0° 222° (SW) 3,549 8.5 -22.3°
Reaches altitude 10° 20:12:04 10° 203° (SSW) 2,628 7.5 -22.9°
Maximum altitude 20:16:01 17° 164° (SSE) 2,179 6.6 -23.6°
Enters shadow 20:16:18 17° 161° (SSE) 2,184 6.6 -23.7°
Drops below altitude 10° 20:20:06 10° 125° (SE) 2,716 - -24.4°
Sets 20:23:47 0° 107° (ESE) 3,719 - -25.1°
